[Date Prev][Date Next][Thread Prev][Thread Next] - [Date Index][Thread Index][Author Index]
2 Line MIR & ISS Keps 12-17
- Subject: [sarex] 2 Line MIR & ISS Keps 12-17
- From: "Dr Dave Larsen [ PhD ]" <doc@xxxxxxxxxxx>
- Date: Thu, 17 Dec 1998 09:45:36 -0800
MIR
1 16609U 86017A 98351.16553463 .00023245 00000-0 17091-3 0 00542
2 16609 051.6585 195.5693 0007751 096.6070 263.5784 15.72946435732777
ISS
1 25544U 98067A 98351.17572615 .00018257 00000-0 25600-3 0 1317
2 25544 51.5924 32.2689 0003866 263.9422 96.1253 15.56808028 4215
The latest keps can be found on the Amsat.org Bul Bd - then go to the GSFC
Keps Bd - these are updated 1 to 2 times a day -
Dave
N6CO
>
----
Via the sarex mailing list at AMSAT.ORG courtesy of AMSAT-NA.
To unsubscribe, send "unsubscribe sarex" to Majordomo@amsat.org
AMSAT Home